Van, Turkey

9:02 PM +03 on July 21, 2017 (GMT +0300)
Van

Weather History for LTCI - September, 2013

Change the Weather History Date:

Saturday, September 14, 2013

  Actual Average Record
Temperature  
Mean Temperature 60 °F -  
Max Temperature 76 °F 69 °F 81 °F (2015)
Min Temperature 45 °F 46 °F 45 °F (2013)
Degree Days  
Heating Degree Days 4    
Growing Degree Days 10 (Base 50)    
Moisture  
Dew Point 40 °F    
Average Humidity 43    
Maximum Humidity 66    
Minimum Humidity 21    
Precipitation  
Precipitation 0.00 in 0.04 in - ()
Sea Level Pressure  
Sea Level Pressure 30.15 in    
Wind  
Wind Speed 3 mph ()    
Max Wind Speed 8 mph    
Max Gust Speed -    
Visibility 6.3 miles    
Events      
Averages and records for this station are not official NWS values.
T = Trace of Precipitation, MM = Missing Value Source: Averaged Metar Reports

Daily Weather History Graph

Daily Weather History Graph

Search for Another Location

Airport or City:

Trip Planner

Search our weather history database for the weather conditions in past years. The results will help you decide how hot, cold, wet, or windy it might be!

Date:

Astronomy

Sep. 14, 2013 Rise Set
Actual Time 5:47 AM EEST 6:16 PM EEST
Civil Twilight 5:20 AM EEST 6:43 PM EEST
Nautical Twilight 4:49 AM EEST 7:14 PM EEST
Astronomical Twilight 4:17 AM EEST 7:46 PM EEST
Moon 2:36 PM EEST (9/14) No Moon Set
Length of Visible Light 13h 22m
Length of Day
12h 29m
Waxing Gibbous, 69% of the Moon is Illuminated
Sep 14
Waxing Gibbous
Sep 19
Full
Sep 27
Last Quarter
Oct 5
New
Oct 12
First Quarter

Hourly Weather History & Observations

Time (EEST) Temp. Dew Point Humidity Pressure Visibility Wind Dir Wind Speed Gust Speed Precip Events Conditions
12:50 AM 51.8 °F 32.0 °F 47% 30.18 in - ENE 2.3 mph - N/A   Clear
1:50 AM 50.0 °F 33.8 °F 54% 30.21 in - East 4.6 mph - N/A   Clear
2:50 AM 50.0 °F 30.2 °F 47% 30.18 in - Variable 2.3 mph - N/A   Clear
3:50 AM 50.0 °F 32.0 °F 50% 30.18 in - ENE 3.5 mph - N/A   Clear
4:50 AM 48.2 °F 37.4 °F 66% 30.18 in - East 2.3 mph - N/A   Clear
5:50 AM 48.2 °F 32.0 °F 54% 30.18 in - ENE 3.5 mph - N/A   Clear
6:50 AM 55.4 °F 39.2 °F 54% 30.18 in - East 3.5 mph - N/A   Clear
7:50 AM 66.2 °F 39.2 °F 37% 30.18 in - Variable 1.2 mph - N/A   Clear
8:50 AM 68.0 °F 39.2 °F 35% 30.21 in - SW 4.6 mph - N/A   Clear
9:00 AM 69 °F 38 °F 21%  in 6 mi SW 4.6 mph - -  
9:50 AM 69.8 °F 44.6 °F 40% 30.21 in - WNW 5.8 mph - N/A   Clear
10:50 AM 71.6 °F 46.4 °F 41% 30.18 in - WNW 5.8 mph - N/A   Clear
11:50 AM 73.4 °F 48.2 °F 41% 30.18 in - WNW 8.1 mph - N/A   Clear
12:50 PM 75.2 °F 46.4 °F 36% 30.15 in - WNW 8.1 mph - N/A   Clear
1:50 PM 75.2 °F 46.4 °F 36% 30.15 in - West 6.9 mph - N/A   Clear
2:50 PM 73.4 °F 48.2 °F 41% 30.12 in - WSW 8.1 mph - N/A   Clear
3:00 PM 74 °F 48 °F 29%  in 7 mi WSW 8.1 mph - -  
3:50 PM 73.4 °F 51.8 °F 47% 30.12 in - SSW 6.9 mph - N/A   Clear
4:50 PM 75.2 °F 42.8 °F 31% 30.09 in - SW 3.5 mph - N/A   Clear
5:50 PM 73.4 °F 42.8 °F 33% 30.09 in - SSW 2.3 mph - N/A   Clear
6:50 PM 62.6 °F 37.4 °F 39% 30.09 in - Variable 2.3 mph - N/A   Clear
7:50 PM 59.0 °F 37.4 °F 45% 30.12 in - NNE 2.3 mph - N/A   Clear
8:50 PM 57.2 °F 35.6 °F 44% 30.12 in - East 2.3 mph - N/A   Clear
9:00 PM 56 °F 36 °F 34%  in 6 mi East 2.3 mph - -  
9:50 PM 55.4 °F 35.6 °F 47% 30.12 in - Calm Calm - N/A   Clear
10:50 PM 53.6 °F 33.8 °F 47% 30.12 in - ENE 3.5 mph - N/A   Clear
11:50 PM 51.8 °F 35.6 °F 54% 30.09 in - Calm Calm - N/A   Clear